Regional Weather Roundup
Issued by NWS

Home | Current Version | Previous Version | Text Only | Print | Product List | Glossary On
Versions: 1 2 3 4 5 6 7 8 9 10 11 12 13 14 15 16 17 18 19 20 21 22 23 24 25 26 27 28 29 30 31 32 33 34 35 36 37 38 39 40 41 42 43 44 45 46 47 48 49 50
000
ASHW40 PHFO 281510
RWRHI

WEATHER ROUNDUP FOR HAWAII
NATIONAL WEATHER SERVICE HONOLULU HI
500 AM HST THU MAY 28 2015

THIS IS AN AUTOMATED REPORT THAT HAS NOT BEEN QUALITY CONTROLLED.

NOTE..."FAIR" INDICATES FEW OR NO CLOUDS BELOW 12,000 FEET WITH NO
SIGNIFICANT WEATHER AND/OR OBSTRUCTIONS TO VISIBILITY.

* - THESE SITES REPORT LIMITED FIELDS

HIZ001>004-281600-
KAUAI-NIIHAU-

CITY           SKY/WX    TMP DP  RH WIND       PRES   REMARKS
LIHUE APT      CLOUDY    68  64  87 NW10      29.98R
PORT ALLEN*    NOT AVBL
POIPU*           N/A     68 N/A N/A VRB7G15     N/A
PRINCEVILLE*     N/A     66 N/A N/A MISG        N/A
KOKOLE POINT*  NOT AVBL
MOLOAA DAIRY*  NOT AVBL
WAIMEA HTS*    NOT AVBL
PUU OPAE*      NOT AVBL
PUU LUA*       NOT AVBL
MAKAHA RIDGE*  NOT AVBL
$$

HIZ005>011-281600-
OAHU-

CITY           SKY/WX    TMP DP  RH WIND       PRES   REMARKS
HONOLULU       PTCLDY    73  64  73 NW6       29.94R
KALAELOA       CLOUDY    72  62  71 CALM      29.96R
KANEOHE MCB    CLOUDY   N/A N/A N/A SW5       29.93R
WHEELER FIELD  FAIR      68  63  85 NW7       29.95R
BELLOWS*       NOT AVBL
KAHUKU*        NOT AVBL
WHEELER*       NOT AVBL
WAIANAE HARBOR NOT AVBL
DILLINGHAM*      N/A     72  64  78 MISG        N/A
KAHUKU TRN*      N/A     66  63  88 E3G12       N/A
KAWAILOA*        N/A     66  64  94 E6G14       N/A
KII*             N/A     73  66  78 NE12G18     N/A
MAKUA RANGE*     N/A     72  64  78 E9G20       N/A
OAHU FOREST NW NOT AVBL
SCHOFIELD BRK*   N/A     64  61  88 MISG        N/A
SCHOFIELD S*   NOT AVBL
WAIANAE VLY*   NOT AVBL
KUAOKALA*      NOT AVBL
HONOULIUULI*   NOT AVBL
MOKUOLOE IS*   NOT AVBL
PALEHUA*       NOT AVBL
WAIAWA PHB*    NOT AVBL
$$

HIZ012>013-281600-
MOLOKAI-

CITY           SKY/WX    TMP DP  RH WIND       PRES   REMARKS
MOLOKAI AIRPT  MOCLDY    70  66  87 N6        29.95S
KALAUPAPA      NOT AVBL
MAKAPULAPAI*   NOT AVBL
MOLOKAI 1*     NOT AVBL
PUU ALII*      NOT AVBL
$$

HIZ016-281600-
KAHOOLAWE-

CITY           SKY/WX    TMP DP  RH WIND       PRES   REMARKS
KAHOOLAWE*     NOT AVBL
HAKIOAWA*      NOT AVBL
HONOKANAIA*      N/A     75  67  76 N10G16    29.95R
KANELOA*         N/A     70  64  83 N12G18    29.99S
KEALIALALO*    NOT AVBL
LUA MAKIKA*    NOT AVBL
$$

HIZ014>015-281600-
LANAI-

CITY           SKY/WX    TMP DP  RH WIND       PRES   REMARKS
LANAI CITY     CLOUDY    67  63  87 E5        29.99R
LANAI 1*       NOT AVBL
$$

HIZ017>028-281600-
MAUI-

CITY           SKY/WX    TMP DP  RH WIND       PRES   REMARKS
KAHULUI        LGT RAIN  72  68  88 N7        29.95R FOG
KAPALUA-W MAUI NOT AVBL
HANA AIRPORT   CLOUDY    68  68 100 CALM      29.98S
HANA*          NOT AVBL
HALEAKALA SUMM   N/A     41  41 100 S8G26       N/A
MAALAEA BAY*   NOT AVBL
HALEAKALA*     NOT AVBL
KAUPO GAP*     NOT AVBL
KULA 1*          N/A     51  51 100 NE3         N/A
$$

HIZ023>026-281600-
BIG ISLAND OF HAWAII COAST AND LOWER SLOPES-

CITY           SKY/WX    TMP DP  RH WIND       PRES   REMARKS
KAILUA KONA    CLEAR     73  66  78 E3        29.91R
HILO           CLOUDY    69  67  93 CALM      29.92R
HONOKAA*       NOT AVBL
KAWAIHAE MWT*  NOT AVBL
KAWAIHAE*        N/A     77 N/A N/A S3          N/A
SOUTH POINT*   NOT AVBL
UPOLU AIRPORT* NOT AVBL
KAMUELA*       CLOUDY    63  63 100 NE6       30.03S
HAKALAU*         N/A     48  48 100 SW3         N/A
KALOKO-HONOKO* NOT AVBL
PALI 2*          N/A     61  59  94 N5          N/A
KEALAKOMO*       N/A     88  82  84 N6          N/A  HX 108
KAUPULEHU*     NOT AVBL
KAPAPALA*        N/A     59  57  94 N5          N/A
LOWER KAHUKU*  NOT AVBL
PUHE CS*       NOT AVBL
PUHO CS*       NOT AVBL
PTA KEAMUKU*     N/A     59  54  82 CALM        N/A
WAIKOLOA*      NOT AVBL
$$

HIZ027>028-281600-
BIG ISLAND OF HAWAII INTERIOR AND SUMMMITS-

CITY           SKY/WX    TMP DP  RH WIND       PRES   REMARKS
BRADSHAW FIELD CLOUDY    48  44  85 SE5       30.24R
MK VISITOR CEN NOT AVBL
MAUNA KEA*       N/A     34  23  64 NW43        N/A  WCI  18
MAUNA LOA*       N/A     45   9  23 MISG        N/A
MAUNA LOA 1*   NOT AVBL
PTA KIPUKA*      N/A     52  52 100 E3          N/A
PTA RANGE 17*    N/A     52  50  93 NE3         N/A
PTA WEST*        N/A     70  68  94 SE9         N/A
NENE CABIN*    NOT AVBL
AHUMOA*        NOT AVBL
PTA PORTABLE*  NOT AVBL
PUU MALI*        N/A     52  50  93 E1          N/A
$$

HIC003-281600-
NORTHWEST ISLANDS-

CITY           SKY/WX    TMP DP  RH WIND       PRES   REMARKS
MIDWAY ISLAND  CLOUDY   N/A N/A N/A NE3       30.15S
MIDWAY NOS*    NOT AVBL
FRENCH FRIGATE NOT AVBL
$$

PHZ110>124-180-281600-
BUOY REPORTS

STATION/POSITION TIME  TEMP    WIND        PRES    WAVE   SWELL
                       AIR SEA DIR/SP/G            HT/PER HT/DIR
                 (UTC) (F)     (DEG/KT/KT) (MB)    (FT/S) (FT/D)
BUOY 51001       NOT AVBL
BUOY 51101       1500   71 74   40/ 10/ 12 1015.6F   4/11   5/300
BUOY 51100       NOT AVBL
BUOY 51002       1500   77 80  170/  2/  2 1013.2R   4/13   3/240
BUOY 51003       1400   77 79   50/  6/  8 1013.4F   4/13   5
BUOY 51004       1354   74 79  270/  2/  6 1013.7    5/ 9   5/ 90
BARBERS PT BUOY  NOT AVBL
WAIMEA BAY BUOY  1500      77                N/A     5/ 8
KAILUA BAY BUOY  1500      77                N/A     4/ 8   2/ 80
LANAI BUOY       NOT AVBL
BARBERS PT 2     1500      77                N/A     3/13   2/190
PAUWELA MAUI     1500      77                N/A     4/ 8   2/350
HILO             1500      77                N/A     4/ 8   2/ 30
KANEOHE BAY BUOY 1500      77                N/A     4/ 8   2
HANALEI KAUAI    1500      78                N/A     5/ 8   2/320
KAHULUI HARBOR   1500   74 78  320/  9/ 12 1013.9R
HONOLULU HARBOR  1500   74 76  350/  4/  7 1013.8R
KILO NALU        NOT AVBL
HILO HARBOR      1500   69 76  180/  3/  4 1012.9R
MOKUOLOE         1500   68 78   CALM  /  1 1014.2S
NAWILIWILI       1500   68 78  270/  6/  8 1014.7R
WHOTS BUOY       NOT AVBL
BUOY 51028       NOT AVBL
$$

......................KEY........................................
  SKY/WX - SKY CONDITIONS/PRESENT WEATHER
  TMP    - TEMPERATURE IN FAHRENHEIT
  DWPT   - DEWPOINT IN FAHRENHEIT
  RH     - RELATIVE HUMIDITY IN PERCENT
  WIND   - DIRECTION AND SPEED /MPH FOR ISLANDS...KTS FOR BUOYS/
  PRES   - MEAN SEA LEVEL PRESSURE IN INCHES OF HG
  VSB    - VISIBILITY IN MILES
  HX     - HEAT INDEX
  WCI    - WIND CHILL INDEX
  VRB    - VARIABLE WIND DIRECTION
  N/A    - NOT AVAILABLE


USA.gov is the U.S. government's official web portal to all federal, state and local government web resources and services.